This is the latest recevied weather packets stored in our database for station/object KC1BRV. If no packets are shown the sender has not sent any weather packets the latest 10 day(s).
| Time | Temp. | Humidity | Pressure | Rain* | Wind** | Luminosity | Snow |
|---|---|---|---|---|---|---|---|
| 1788148155 | 20° C | 96% | 1018.6 hPa | 0 mm | - | 0 W/m² | - |
| 1788147850 | 20° C | 96% | 1018.5 hPa | 0 mm | - | 0 W/m² | - |
| 1788147545 | 20° C | 96% | 1018.4 hPa | 0 mm | - | 0 W/m² | - |
| 1788147241 | 20° C | 96% | 1018.6 hPa | 1.27 mm | - | 0 W/m² | - |
| 1788146937 | 20° C | 96% | 1018.9 hPa | 12.7 mm | - | 0 W/m² | - |
| 1788146636 | 20.56° C | 96% | 1018.7 hPa | 11.94 mm | - | 0 W/m² | - |
| 1788146331 | 20.56° C | 96% | 1018.7 hPa | 3.05 mm | - | 0 W/m² | - |
| 1788146030 | 20.56° C | 96% | 1018.5 hPa | 4.83 mm | - | 0 W/m² | - |
| 1788145725 | 20.56° C | 96% | 1018.4 hPa | 6.6 mm | - | 0 W/m² | - |
| 1788145424 | 20.56° C | 96% | 1018.5 hPa | 10.67 mm | - | 0 W/m² | - |
| 1788145123 | 20.56° C | 96% | 1018.5 hPa | 10.16 mm | - | 0 W/m² | - |
| 1788144823 | 20.56° C | 95% | 1018.6 hPa | 8.89 mm | - | 0 W/m² | - |
| 1788144519 | 20.56° C | 95% | 1018.5 hPa | 10.67 mm | - | 0 W/m² | - |
| 1788144218 | 20.56° C | 95% | 1018.4 hPa | 7.87 mm | - | 0 W/m² | - |
| 1788143911 | 21.11° C | 94% | 1018.5 hPa | 1.27 mm | - | 0 W/m² | - |
| 1788143624 | 21.11° C | 94% | 1018.5 hPa | 1.78 mm | - | 0 W/m² | - |
| 1788143306 | 21.11° C | 94% | 1018.6 hPa | 1.27 mm | - | 0 W/m² | - |
| 1788143004 | 21.11° C | 93% | 1018.8 hPa | 1.27 mm | - | 0 W/m² | - |
| 1788142700 | 21.11° C | 93% | 1018.6 hPa | 0 mm | - | 0 W/m² | - |
| 1788142399 | 21.11° C | 93% | 1018.5 hPa | 0 mm | - | 0 W/m² | - |
| 1788142095 | 21.11° C | 93% | 1018.4 hPa | 0 mm | - | 0 W/m² | - |
| 1788141794 | 21.11° C | 93% | 1018.5 hPa | 0 mm | - | 0 W/m² | - |
| 1788141490 | 21.11° C | 93% | 1018.7 hPa | 0 mm | - | 0 W/m² | - |
| 1788141186 | 21.11° C | 93% | 1018.5 hPa | 0 mm | - | 0 W/m² | - |
| 1788140886 | 21.11° C | 92% | 1018.7 hPa | 0 mm | - | 0 W/m² | - |
* Rain latest hour (hover to see other rain measurements)
** Current wind speed in m/s (hover to see current wind gust speed)